[[{"header":{"parameterUnit":"m.s-1","parameterCategory":1,"la1":30.2991,"la2":30.254,"lo1":-89.0895,"lo2":-89.0444,"dy":0.0017,"dx":0.0017,"nx":28,"ny":28,"refTime":"2023-08-31T03:00:00:Z","depth":0,"parameterNumber":2,"parameterNumberName":"U-component_of_WINDS"},"data":[0,0,0,0,0,0,0,0,0,0,0,0,0,0,0,0,0,0,0,0,0,0,0,0,0,0,0,0,0,0,0,0,0,0,0,0,0,0,0,0,0,0,0,0,0,0,0,0,0,0,0,0,0,0,0,0,0,0,-3.6412,-3.6412,0,-3.6365,-3.6365,-3.6364,-3.6311,-3.631,-3.6309,-3.6308,-3.6258,-3.6258,-3.6257,0,0,0,0,0,0,0,0,0,0,0,0,0,-3.6453,-3.6452,-3.6412,-3.6412,-3.6411,-3.6365,-3.6365,-3.6364,-3.6311,-3.631,-3.6309,-3.6308,-3.6259,-3.6258,-3.6257,0,0,0,0,0,0,0,0,0,0,0,0,0,-3.6423,-3.6452,-3.6412,-3.6379,-3.6376,-3.6365,-3.6365,-3.6364,-3.6311,-3.631,-3.6309,-3.6308,-3.6259,-3.6258,-3.6257,-3.6275,0,0,-3.6254,-3.6254,0,0,0,0,0,0,0,0,-3.6425,-3.6422,-3.6385,-3.6381,-3.6377,-3.6343,-3.636,-3.6334,-3.6311,-3.6336,-3.6308,-3.6307,-3.6287,-3.6284,-3.6278,-3.6273,-3.6271,-3.6254,-3.6254,-3.6253,-3.6253,0,0,0,0,0,0,0,-3.6427,-3.6424,-3.6393,-3.6384,-3.638,-3.6365,-3.636,-3.6355,-3.6318,-3.6333,-3.6329,-3.6325,-3.6285,-3.6279,-3.6276,-3.627,-3.6254,-3.6253,-3.6253,-3.6253,-3.6273,-3.6274,0,0,0,0,0,0,-3.6435,-3.6426,-3.6395,-3.6392,-3.6399,-3.6366,-3.636,-3.6355,-3.6318,-3.6312,-3.6326,-3.6322,-3.6281,-3.6277,-3.6274,-3.629,-3.6253,-3.6252,-3.6252,-3.6272,-3.6274,-3.6275,0,0,0,0,0,0,-3.6436,-3.6432,-3.6397,-3.6408,-3.6402,-3.6366,-3.6362,-3.6355,-3.6348,-3.6313,-3.6306,-3.6326,-3.628,-3.6275,-3.6274,-3.6287,-3.6252,-3.6251,-3.6271,-3.6273,-3.6274,-3.6324,0,0,0,0,0,0,-3.6437,-3.6433,-3.644,-3.6408,-3.6402,-3.6399,-3.6362,-3.6355,-3.6347,-3.6342,-3.6311,-3.6305,-3.6278,-3.6276,-3.6274,-3.6286,-3.625,-3.627,-3.6272,-3.6274,-3.6321,-3.6327,-3.6332,0,0,0,0,0,-3.6439,-3.6457,-3.6441,-3.6438,-3.641,-3.64,-3.6396,-3.6366,-3.6348,-3.6354,-3.6331,-3.6306,-3.6287,-3.6277,-3.6273,-3.6285,-3.6269,-3.6271,-3.6274,-3.6318,-3.6326,-3.6332,0,0,0,0,0,0,-3.6491,-3.6452,-3.6434,-3.6442,-3.6425,-3.6391,-3.6398,-3.6376,-3.6362,-3.6358,-3.6321,-3.6314,-3.6317,-3.6301,-3.629,-3.6299,-3.6274,-3.6276,-3.6309,-3.6316,-3.6321,-3.6324,-3.625,0,0,0,0,0,-3.6504,-3.6499,-3.6465,-3.6476,-3.6468,-3.6435,-3.6429,-3.6407,-3.6388,-3.638,-3.6357,-3.6338,-3.6327,-3.6321,-3.6309,-3.6319,-3.6309,-3.6325,-3.6331,-3.6336,-3.6337,-3.6337,-3.6343,-3.6283,-3.6283,-3.6283,0,0,-3.6529,-3.6507,-3.6507,-3.6485,-3.6469,-3.6464,-3.6429,-3.6426,-3.6421,-3.6379,-3.6376,-3.6359,-3.6335,-3.6338,-3.6338,-3.6325,-3.6352,-3.6339,-3.6343,-3.6341,-3.634,-3.6346,-3.6351,-3.6285,-3.6284,-3.6284,0,0,-3.6572,-3.6557,-3.6562,-3.6547,-3.6523,-3.6501,-3.6502,-3.6472,-3.6458,-3.6455,-3.6422,-3.6416,-3.6399,-3.6383,-3.6372,-3.6408,-3.6382,-3.6405,-3.6434,-3.6435,-3.6439,-3.6443,-3.6453,-3.6457,-3.6407,-3.6407,-3.6407,0,-3.6607,-3.6599,-3.6568,-3.6566,-3.6556,-3.6519,-3.6523,-3.6509,-3.6483,-3.6476,-3.6462,-3.6438,-3.642,-3.6417,-3.6426,-3.6419,-3.6418,-3.6408,-3.6442,-3.6445,-3.6448,-3.6457,-3.6461,-3.641,-3.6409,-3.6409,-3.6409,0,-3.6641,-3.6636,-3.6643,-3.6618,-3.661,-3.6611,-3.6579,-3.6574,-3.6553,-3.6531,-3.6527,-3.6503,-3.6485,-3.6483,-3.6463,-3.6477,-3.6469,-3.6449,-3.6422,-3.6457,-3.6465,-3.6468,-3.6414,-3.6413,-3.6412,-3.6411,0,0,-3.6715,-3.6673,-3.6676,-3.6663,-3.6633,-3.6628,-3.6627,-3.6609,-3.6604,-3.6587,-3.6583,-3.6569,-3.655,-3.6538,-3.6515,-3.6516,-3.6542,-3.6495,-3.6494,-3.6502,-3.6552,-3.6566,-3.6571,-3.6526,-3.6526,-3.6527,-3.6553,0,-3.6751,-3.6747,-3.6718,-3.6722,-3.6715,-3.6679,-3.6677,-3.6658,-3.6638,-3.6629,-3.6606,-3.6595,-3.6572,-3.6564,-3.6564,-3.6539,-3.6551,-3.6537,-3.6519,-3.6519,-3.6524,-3.6575,-3.659,-3.6616,-3.6556,-3.6557,-3.6557,0,-3.6792,-3.6777,-3.6781,-3.6749,-3.6745,-3.6745,-3.6725,-3.6717,-3.6694,-3.6679,-3.6665,-3.6639,-3.6633,-3.661,-3.66,-3.6591,-3.6582,-3.6569,-3.6569,-3.6564,-3.6539,-3.6569,-3.6624,-3.6627,-3.6562,-3.6562,-3.6561,0,-3.6842,-3.6823,-3.6822,-3.6813,-3.6777,-3.6777,-3.6761,-3.6737,-3.6728,-3.671,-3.6703,-3.6686,-3.6675,-3.6661,-3.663,-3.6617,-3.6622,-3.6597,-3.6607,-3.6608,-3.6609,-3.6609,-3.6661,-3.6607,-3.6607,-3.6607,-3.6607,0,-3.6884,-3.6887,-3.6844,-3.6843,-3.6844,-3.681,-3.6812,-3.6793,-3.6771,-3.6765,-3.6732,-3.6726,-3.6687,-3.6676,-3.6652,-3.6645,-3.6641,-3.6627,-3.662,-3.6629,-3.663,-3.6621,-3.6617,-3.6608,-3.6608,-3.6608,-3.6608,0,-3.6939,-3.6911,-3.6907,-3.6873,-3.6865,-3.6867,-3.6837,-3.6833,-3.6811,-3.6803,-3.6799,-3.6764,-3.6749,-3.6717,-3.6693,-3.6676,-3.6675,-3.6664,-3.6683,-3.6678,-3.6689,-3.6687,-3.6735,-3.6738,-3.6685,-3.6686,-3.6686,0,-3.6966,-3.6967,-3.6934,-3.6927,-3.6914,-3.6904,-3.6894,-3.6861,-3.6852,-3.6824,-3.6823,-3.6806,-3.679,-3.6767,-3.6738,-3.6719,-3.6706,-3.6724,-3.6703,-3.671,-3.6703,-3.6702,-3.6701,-3.6728,-3.6729,-3.6729,-3.673,0,-3.7016,-3.7002,-3.699,-3.6972,-3.6962,-3.6946,-3.6928,-3.6925,-3.6887,-3.6878,-3.6862,-3.685,-3.6825,-3.6807,-3.6784,-3.6766,-3.6741,-3.6737,-3.6738,-3.6745,-3.6755,-3.6747,-3.6693,-3.6736,-3.6735,-3.6735,-3.6734,-3.6734,-3.7056,-3.7055,-3.7031,-3.7017,-3.7001,-3.6985,-3.6979,-3.6957,-3.6944,-3.6921,-3.6903,-3.6888,-3.6862,-3.6828,-3.6812,-3.6798,-3.6786,-3.6788,-3.6788,-3.6788,-3.6791,-3.6759,-3.6794,-3.6794,-3.6794,-3.6794,-3.6793,0,-3.7102,-3.7085,-3.7074,-3.705,-3.7039,-3.7018,-3.6997,-3.6989,-3.6977,-3.6956,-3.6941,-3.6921,-3.6903,-3.6873,-3.6852,-3.6847,-3.6834,-3.6842,-3.6841,-3.6837,-3.6804,-3.6805,-3.6852,-3.6852,-3.6852,-3.6852,-3.6852,-3.6852,-3.7125,-3.712,-3.7103,-3.7089,-3.7071,-3.7058,-3.7047,-3.7032,-3.7014,-3.6995,-3.698,-3.6961,-3.6935,-3.6911,-3.6893,-3.6884,-3.6877,-3.6888,-3.6875,-3.6845,-3.6839,-3.6834,-3.6834,-3.6887,-3.6887,-3.6908,-3.6908,-3.6908]},{"header":{"parameterUnit":"m.s-1","parameterCategory":1,"la1":30.2991,"la2":30.254,"lo1":-89.0895,"lo2":-89.0444,"dy":0.0017,"dx":0.0017,"nx":28,"ny":28,"refTime":"2023-08-31T03:00:00:Z","depth":0,"parameterNumber":3,"parameterNumberName":"V-component_of_WINDS"},"data":[0,0,0,0,0,0,0,0,0,0,0,0,0,0,0,0,0,0,0,0,0,0,0,0,0,0,0,0,0,0,0,0,0,0,0,0,0,0,0,0,0,0,0,0,0,0,0,0,0,0,0,0,0,0,0,0,0,0,3.6843,3.6845,0,3.7056,3.7058,3.7061,3.7086,3.7084,3.7082,3.708,3.7287,3.7294,3.7302,0,0,0,0,0,0,0,0,0,0,0,0,0,3.6446,3.6453,3.6843,3.6846,3.6848,3.7056,3.7059,3.7061,3.7087,3.7084,3.7082,3.7079,3.7285,3.7293,3.7302,0,0,0,0,0,0,0,0,0,0,0,0,0,3.6634,3.6456,3.6842,3.6886,3.6892,3.7055,3.7059,3.7062,3.7087,3.7084,3.7081,3.7078,3.7282,3.7293,3.7303,3.7434,0,0,3.7337,3.7342,0,0,0,0,0,0,0,0,3.6624,3.6649,3.6877,3.6884,3.6891,3.7042,3.6995,3.7186,3.7088,3.7013,3.708,3.7077,3.7207,3.7224,3.7271,3.7444,3.7452,3.7338,3.7345,3.735,3.7353,0,0,0,0,0,0,0,3.6611,3.664,3.6927,3.688,3.6889,3.6891,3.6915,3.7031,3.7124,3.7019,3.7022,3.7047,3.721,3.726,3.7276,3.7455,3.7338,3.7348,3.7355,3.7359,3.7743,3.7747,0,0,0,0,0,0,3.6591,3.6629,3.692,3.6933,3.6747,3.6901,3.6927,3.6996,3.7123,3.714,3.705,3.7048,3.7242,3.7263,3.7283,3.7443,3.735,3.736,3.7367,3.774,3.7744,3.7748,0,0,0,0,0,0,3.6583,3.6617,3.6912,3.6782,3.682,3.6911,3.6988,3.7002,3.7052,3.7146,3.7162,3.7084,3.7241,3.7267,3.7396,3.745,3.7365,3.7375,3.7736,3.7741,3.7746,3.7764,0,0,0,0,0,0,3.6571,3.6614,3.6667,3.6783,3.6827,3.7025,3.6992,3.7008,3.7072,3.7072,3.7183,3.7198,3.724,3.738,3.7407,3.7464,3.7384,3.7731,3.7738,3.7744,3.7759,3.7769,3.7778,0,0,0,0,0,3.6557,3.6662,3.667,3.6705,3.6896,3.7028,3.7053,3.7103,3.7077,3.7129,3.7189,3.7194,3.744,3.7393,3.7424,3.7485,3.7728,3.7736,3.7744,3.7754,3.7767,3.7778,0,0,0,0,0,0,3.6546,3.6678,3.6688,3.6835,3.6921,3.7033,3.71,3.7115,3.7207,3.7202,3.7256,3.7281,3.7407,3.7459,3.7404,3.7616,3.7581,3.7595,3.7578,3.7591,3.76,3.7584,3.7393,0,0,0,0,0,3.6561,3.6662,3.677,3.6888,3.6931,3.7008,3.7068,3.7099,3.7189,3.7224,3.7294,3.7377,3.7473,3.7535,3.7628,3.7766,3.7789,3.7823,3.7833,3.784,3.7851,3.7926,3.7942,3.7774,3.7774,3.7774,0,0,3.6592,3.6677,3.6736,3.6888,3.6958,3.7057,3.7039,3.7144,3.7217,3.7239,3.7366,3.742,3.7516,3.765,3.7712,3.7697,3.7903,3.785,3.7855,3.7863,3.7936,3.7951,3.7965,3.7779,3.7778,3.7777,0,0,3.67,3.6775,3.6882,3.6953,3.7061,3.7112,3.7137,3.7247,3.7285,3.7414,3.7432,3.7517,3.7682,3.7749,3.7805,3.7937,3.7944,3.7966,3.8015,3.8087,3.81,3.8112,3.8157,3.8173,3.7977,3.7977,3.7977,0,3.6724,3.6878,3.6933,3.704,3.7104,3.7132,3.7237,3.7303,3.7434,3.7476,3.7458,3.7664,3.7731,3.788,3.7913,3.7957,3.7985,3.7953,3.8094,3.8107,3.8119,3.8162,3.8179,3.7979,3.7979,3.7978,3.7978,0,3.6902,3.7008,3.708,3.721,3.7282,3.7387,3.7454,3.7521,3.7545,3.7596,3.7725,3.7807,3.7916,3.7954,3.7978,3.8106,3.8093,3.8084,3.8049,3.8136,3.8177,3.8194,3.7982,3.7981,3.798,3.798,0,0,3.7008,3.7168,3.7193,3.7252,3.7372,3.7453,3.7557,3.7669,3.7723,3.7812,3.7899,3.8037,3.803,3.8093,3.8124,3.8187,3.8284,3.817,3.8173,3.8187,3.8427,3.8432,3.8451,3.829,3.8293,3.8296,3.8419,0,3.7129,3.7321,3.7372,3.7533,3.763,3.7657,3.7747,3.7828,3.7878,3.7964,3.8018,3.8115,3.8099,3.8137,3.8201,3.8259,3.8332,3.8251,3.8367,3.8371,3.8342,3.8473,3.848,3.8592,3.8435,3.8438,3.844,0,3.7295,3.7391,3.7562,3.7669,3.7712,3.7793,3.7897,3.7981,3.8072,3.8104,3.8174,3.82,3.8305,3.8266,3.841,3.8353,3.8403,3.8439,3.8444,3.8456,3.841,3.8487,3.8629,3.8645,3.8467,3.8465,3.8463,0,3.7354,3.7525,3.765,3.7699,3.7827,3.7883,3.7938,3.8027,3.809,3.818,3.8221,3.832,3.8375,3.8449,3.8499,3.8466,3.8638,3.8603,3.8664,3.8663,3.8699,3.8696,3.8849,3.8733,3.8733,3.8733,3.8732,0,3.7482,3.7585,3.7678,3.7754,3.7869,3.7926,3.8037,3.8092,3.8171,3.8255,3.8283,3.8361,3.8423,3.8508,3.8547,3.8659,3.8683,3.8709,3.8718,3.8706,3.8703,3.8739,3.8732,3.8737,3.8736,3.8735,3.8735,0,3.7567,3.7634,3.7771,3.7882,3.7912,3.7991,3.8084,3.8157,3.8208,3.8314,3.8342,3.842,3.8522,3.858,3.8706,3.8732,3.8856,3.8862,3.8827,3.8831,3.8888,3.8881,3.9069,3.9096,3.8963,3.8964,3.8965,0,3.7645,3.7725,3.7845,3.7906,3.7963,3.8059,3.8124,3.8182,3.8247,3.8357,3.8416,3.852,3.8606,3.8766,3.8831,3.8928,3.8935,3.8994,3.8949,3.8934,3.8934,3.8928,3.8935,3.9001,3.9002,3.9003,3.9004,0,3.7774,3.7803,3.7897,3.8004,3.8081,3.8166,3.825,3.8297,3.8368,3.8439,3.8546,3.8613,3.8743,3.8844,3.8946,3.8998,3.9012,3.9018,3.9037,3.9025,3.9001,3.9013,3.8846,3.9013,3.9012,3.9011,3.9011,3.9011,3.7857,3.7929,3.8025,3.8128,3.8198,3.8276,3.835,3.8411,3.8502,3.8615,3.8642,3.8753,3.8839,3.8978,3.9033,3.9117,3.9106,3.9134,3.9141,3.9146,3.9148,3.8988,3.9136,3.9136,3.9135,3.9135,3.9135,0,3.7986,3.8049,3.8144,3.8263,3.8343,3.8353,3.8446,3.8512,3.861,3.8692,3.8777,3.8897,3.8995,3.9069,3.9168,3.9221,3.923,3.9245,3.9241,3.9253,3.9153,3.9126,3.9237,3.9237,3.9237,3.9237,3.9237,3.9237,3.8063,3.8185,3.8225,3.8381,3.8442,3.8554,3.8606,3.8676,3.8742,3.8876,3.8959,3.9008,3.9085,3.919,3.9279,3.9298,3.9333,3.9347,3.9366,3.9271,3.926,3.9249,3.9224,3.9354,3.9355,3.9459,3.946,3.9461]}]]